Flag for U.S.A. Weather past 2 weeks in Dayton, Ohio, U.S.A.

58 °F

Passing clouds.

Feels Like: 58 °F
Forecast: 55 / 77 °F
Wind: No wind

Location: Dayton / Wright-Patterson Air Force Base

Current Time: Oct 7, 2015 at 5:10:30 AM

Latest Report: Oct 7, 2015 at 3:58 AM

Visibility: 7 mi

Pressure: 30.07 "Hg

Humidity: 93%

Dew point: 56 °F

Location of DaytonLocation

Historic Weather in Dayton — Graph


Dayton temperature yesterday

Maximum temperature yesterday: 79 °F (at 3:58 PM)
Minimum temperature yesterday: 50 °F (at 7:48 AM)
Average temperature yesterday: 64 °F

Past Weeks' High & Low Weather Summary

High84 °F (Sep 28, 4:58 PM)100% (Sep 28, 6:58 AM)30.28 "Hg (Sep 28, 6:58 AM)
Low45 °F (Oct 3, 8:58 AM)21% (Sep 24, 3:58 PM)29.86 "Hg (Sep 29, 5:58 PM)
Average64 °F73%30.12 "Hg
* Reported Sep 22 3:58 AM — Oct 7 3:58 AM, Dayton, Weather by CustomWeather, © 2015

Note: Actual official high and low records may vary slightly from our data, if they occured in-between our weather recording intervals... More about our weather records


Dayton weather history for previous 24 hours

Time TempWeatherWind HumidityBarometerVisibility
3:58 AM
Wed, Oct 7
58 °FPassing clouds.No wind93%30.07 "Hg7 mi
2:58 AM60 °FPassing clouds.No wind89%30.06 "Hg7 mi
1:58 AM61 °FFog.No wind88%30.06 "Hg10 mi
12:58 AM60 °FFog.No wind89%30.08 "Hg10 mi
11:58 PM
Tue, Oct 6
62 °FPassing clouds.No wind89%30.07 "Hg10 mi
10:58 PM60 °FPassing clouds.No wind82%30.07 "Hg10 mi
9:58 PM65 °FPassing clouds.No wind73%30.07 "Hg10 mi
8:58 PM66 °FPassing clouds.No wind76%30.06 "Hg7 mi
7:58 PM71 °FPartly sunny.5 mph60%30.06 "Hg10 mi
6:58 PM74 °FPartly sunny.3 mph51%30.05 "Hg10 mi
5:58 PM77 °FPartly sunny.8 mph45%30.05 "Hg10 mi
4:58 PM76 °FPartly sunny.7 mph44%30.06 "Hg10 mi
3:58 PM79 °FPartly sunny.5 mph39%30.06 "Hg10 mi
2:58 PM79 °FPassing clouds.2 mph39%30.07 "Hg10 mi
1:58 PM77 °FPassing clouds.1 mph39%30.10 "Hg10 mi
12:58 PM73 °FSunny.2 mph39%30.11 "Hg10 mi
11:58 AM72 °FSunny.2 mph47%30.12 "Hg10 mi
10:58 AM68 °FSunny.No wind61%30.12 "Hg10 mi
9:58 AM61 °FPassing clouds.1 mph85%30.12 "Hg10 mi
8:58 AM56 °FPartly sunny.No wind100%30.12 "Hg10 mi
7:58 AM51 °FPassing clouds.No wind100%30.10 "Hg7 mi
7:48 AM50 °FPassing clouds.No wind100%30.10 "Hg7 mi
6:58 AM51 °FFog.No wind98%30.09 "Hg10 mi
5:58 AM54 °FFog.No wind100%30.08 "Hg10 mi
Weather by CustomWeather, © 2015

See weather overviewHow to use our weather pages